Location: El Chorro
(10.0985°N, 67.3542°W)
Time: 18:32:58
(UTC+00:00)

SPOT 1/Viking Rocket - Pass Details

Date: 15 November 2025
Orbit: 773 x 788 km, 98.2° (Epoch: 06 December)

Event Time Altitude Azimuth Distance (km) Brightness Sun altitude
Rises 23:06:34 0° 167° (SSE) 3,245 6.8 -15.5°
Reaches altitude 10° 23:08:52 10° 167° (SSE) 2,320 6.0 -16.1°
Maximum altitude 23:14:00 87° 80° (E) 782 3.4 -17.3°
Drops below altitude 10° 23:19:08 10° 349° (N) 2,328 5.9 -18.5°
Sets 23:21:27 0° 349° (N) 3,258 6.7 -19.0°
